Regional Weather Roundup
Issued by NWS

Home | Current Version | Previous Version | Text Only | Print | Product List | Glossary On
Versions: 1 2 3 4 5 6 7 8 9 10 11 12 13 14 15 16 17 18 19 20 21 22 23 24 25 26 27 28 29 30 31 32 33 34 35 36 37 38 39 40 41 42 43 44 45 46 47 48 49 50
000
ASUS45 KREV 271010
RWRNV
NEVADA REGIONAL WEATHER ROUNDUP
NATIONAL WEATHER SERVICE RENO NV
300 AM PDT WED JUL 27 2016

NOTE: "FAIR" INDICATES FEW OR NO CLOUDS BELOW 12,000 FEET WITH NO
SIGNIFICANT WEATHER AND/OR OBSTRUCTIONS TO VISIBILITY.

NVZ001-003-004-271100-
WESTERN NEVADA

CITY           SKY/WX    TMP DP  RH WIND       PRES   REMARKS
RENO           CLEAR     64  31  28 CALM      30.13S
CARSON CITY    FAIR      63  25  23 W3        30.17R
MINDEN         FAIR      52  32  46 SE3       30.16S
PYRAMID LAKE     N/A     81 N/A N/A W6          N/A
FALLON         CLEAR     68  24  19 SE3       30.06R
LOVELOCK       CLEAR     60  19  20 NW7       30.04R
HAWTHORNE      CLEAR     72  21  15 SW6       30.09S
$$

NVZ002-CAZ072-073-271100-
NORTHERN AND CENTRAL SIERRA

CITY           SKY/WX    TMP DP  RH WIND       PRES   REMARKS
S. LAKE TAHOE  CLEAR     47  34  60 CALM      30.28S
TRUCKEE        CLEAR     43  34  70 CALM      30.27F
SQUAW VLY 8000 NOT AVBL
SUSANVILLE     CLEAR     66  45  45 CALM      30.10S
MAMMOTH LAKES    N/A     60  28  29 W3        30.35S
BRIDGEPORT       N/A     52  20  28 CALM      30.32S
$$

NVZ030-031-036-271100-
NORTHERN NEVADA

CITY           SKY/WX    TMP DP  RH WIND       PRES   REMARKS
ELKO           CLEAR     53  33  46 SW5       30.15R
WINNEMUCCA     CLEAR     53  25  33 S7        30.07S
WENDOVER       CLEAR     73  34  23 CALM      30.09R
$$

NVZ035-037-271100-
CENTRAL NEVADA

CITY           SKY/WX    TMP DP  RH WIND       PRES   REMARKS
ELY            CLEAR     51  18  27 S12       30.24R
EUREKA           N/A     54  23  30 S7        30.21S
$$

NVZ013-014-271100-
SOUTH CENTRAL NEVADA

CITY           SKY/WX    TMP DP  RH WIND       PRES   REMARKS
TONOPAH        CLEAR     69  19  15 N10       30.16R
$$

NVZ017-020-022-271100-
SOUTHERN NEVADA

CITY           SKY/WX    TMP DP  RH WIND       PRES   REMARKS
LAS VEGAS      PTCLDY    96  41  15 S8        29.79R
N. LAS VEGAS   CLEAR     90  46  21 CALM      29.82S
NELLIS AFB     CLEAR     89  50  25 NE2       29.80R
HENDERSON      CLEAR     93  47  20 S13       29.87S
MERCURY        CLEAR     82  39  21 CALM      29.93S
$$



USA.gov is the U.S. government's official web portal to all federal, state and local government web resources and services.